Location: Camp at the Woods
(43.2055°N, 93.0905°W)
Time: 00:49:49
(UTC+00:00)

Cosmos 2227 Rocket - Pass Details

Date: 25 May 2025
Orbit: 837 x 844 km, 71.0° (Epoch: 12 June)

Event Time Altitude Azimuth Distance (km) Brightness Sun altitude
Exits shadow 09:46:28 - 268° (W) 3,043 4.6 -8.7°
Reaches altitude 10° 09:49:04 10° 288° (WNW) 2,457 4.3 -8.3°
Maximum altitude 09:51:50 14° 317° (NW) 2,208 4.4 -8.0°
Drops below altitude 10° 09:54:36 10° 347° (NNW) 2,464 5.0 -7.6°
Sets 09:58:28 0° 13° (NNE) 3,405 6.2 -7.0°
